| time (UTC) | temp F | wind direction | speed knots | gust knots | rain 1hr in | rain 24hr in | rain mn in | humidity % | barometer mb |
| 20260905195135 | 71 | 281 | 0.9 | 1.7 | 0.00 | 0.00 | 0.00 | 53 | 1023.8 |
| 20260905193943 | 71 | 290 | 0.9 | 1.7 | 0.00 | 0.00 | 0.00 | 53 | 1023.6 |
| 20260905192750 | 71 | 304 | 0.9 | 0.9 | 0.00 | 0.00 | 0.00 | 52 | 1023.6 |
| 20260905191538 | 71 | 270 | 0.9 | 1.7 | 0.00 | 0.00 | 0.00 | 51 | 1023.6 |
| 20260905190334 | 72 | 296 | 0.9 | 1.7 | 0.00 | 0.00 | 0.00 | 51 | 1023.5 |
| 20260905185143 | 72 | 300 | 0.0 | 0.9 | 0.00 | 0.00 | 0.00 | 50 | 1023.2 |
| 20260905183959 | 73 | 302 | 0.9 | 1.7 | 0.00 | 0.00 | 0.00 | 50 | 1023.1 |
| 20260905182747 | 73 | 303 | 0.9 | 1.7 | 0.00 | 0.00 | 0.00 | 49 | 1022.9 |
| 20260905181525 | 73 | 308 | 0.9 | 1.7 | 0.00 | 0.00 | 0.00 | 49 | 1022.7 |
| 20260905180342 | 74 | 307 | 0.9 | 1.7 | 0.00 | 0.00 | 0.00 | 48 | 1022.7 |
| 20260905175200 | 74 | 302 | 1.7 | 2.6 | 0.00 | 0.00 | 0.00 | 47 | 1022.5 |
| 20260905174008 | 75 | 297 | 1.7 | 4.3 | 0.00 | 0.00 | 0.00 | 46 | 1022.2 |
| 20260905172815 | 0 | 0.0 | 0.0 | 0.00 | 0.00 | 0.00 | |||
| 20260905172422 | 0 | 0.0 | 0.0 | 0.00 | 0.00 | 0.00 | |||
| 20260905171234 | 77 | 290 | 2.6 | 3.5 | 0.00 | 0.00 | 0.00 | 44 | 1022.2 |
| 20260905170041 | 77 | 306 | 4.3 | 7.0 | 0.00 | 0.00 | 0.00 | 43 | 1022.1 |
| 20260905164829 | 77 | 321 | 2.6 | 3.5 | 0.00 | 0.00 | 0.00 | 43 | 1022.0 |
| 20260905163656 | 77 | 302 | 4.3 | 7.8 | 0.00 | 0.00 | 0.00 | 42 | 1021.9 |
| 20260905162443 | 77 | 290 | 5.2 | 7.8 | 0.00 | 0.00 | 0.00 | 41 | 1021.8 |
| 20260905161250 | 78 | 311 | 4.3 | 7.0 | 0.00 | 0.00 | 0.00 | 41 | 1021.7 |
| 20260905160047 | 78 | 310 | 3.5 | 6.1 | 0.00 | 0.00 | 0.00 | 41 | 1021.8 |
| 20260905154834 | 78 | 300 | 5.2 | 7.0 | 0.00 | 0.00 | 0.00 | 41 | 1021.7 |
| 20260905153642 | 79 | 314 | 6.1 | 9.6 | 0.00 | 0.00 | 0.00 | 41 | 1021.6 |
| 20260905152439 | 79 | 294 | 5.2 | 16.5 | 0.00 | 0.00 | 0.00 | 42 | 1021.4 |
| 20260905151227 | 79 | 285 | 6.1 | 9.6 | 0.00 | 0.00 | 0.00 | 43 | 1021.5 |
| 20260905150035 | 80 | 301 | 5.2 | 9.6 | 0.00 | 0.00 | 0.00 | 42 | 1021.4 |
| 20260905144833 | 80 | 304 | 5.2 | 9.6 | 0.00 | 0.00 | 0.00 | 43 | 1021.4 |
| 20260905143650 | 81 | 305 | 3.5 | 5.2 | 0.00 | 0.00 | 0.00 | 43 | 1021.3 |
| 20260905142438 | 81 | 312 | 3.5 | 5.2 | 0.00 | 0.00 | 0.00 | 42 | 1021.2 |
| 20260905141246 | 81 | 283 | 6.1 | 13.0 | 0.00 | 0.00 | 0.00 | 42 | 1021.2 |
| 20260905140033 | 81 | 308 | 4.3 | 9.6 | 0.00 | 0.00 | 0.00 | 41 | 1021.4 |
| 20260905134841 | 81 | 292 | 5.2 | 7.8 | 0.00 | 0.00 | 0.00 | 40 | 1021.4 |
| 20260905133649 | 81 | 307 | 4.3 | 7.8 | 0.00 | 0.00 | 0.00 | 40 | 1021.5 |
| 20260905132427 | 81 | 315 | 4.3 | 7.0 | 0.00 | 0.00 | 0.00 | 40 | 1021.6 |
| 20260905131235 | 81 | 290 | 5.2 | 7.8 | 0.00 | 0.00 | 0.00 | 39 | 1021.7 |
| 20260905130032 | 81 | 307 | 5.2 | 7.8 | 0.00 | 0.00 | 0.00 | 40 | 1021.9 |
| 20260905124829 | 80 | 310 | 7.0 | 13.0 | 0.00 | 0.00 | 0.00 | 40 | 1021.9 |
| 20260905123626 | 80 | 285 | 6.1 | 10.4 | 0.00 | 0.00 | 0.00 | 42 | 1021.9 |
| 20260905122443 | 80 | 283 | 7.0 | 13.9 | 0.00 | 0.00 | 0.00 | 41 | 1021.9 |
| 20260905121230 | 80 | 293 | 5.2 | 15.6 | 0.00 | 0.00 | 0.00 | 43 | 1021.9 |
| 20260905120027 | 80 | 296 | 7.0 | 14.8 | 0.00 | 0.00 | 0.00 | 43 | 1022.1 |
| 20260905114834 | 80 | 311 | 4.3 | 6.1 | 0.00 | 0.00 | 0.00 | 44 | 1022.0 |
| 20260905113642 | 80 | 306 | 6.1 | 6.1 | 0.00 | 0.00 | 0.00 | 45 | 1022.3 |
| 20260905093335 | 71 | 283 | 3.5 | 6.1 | 0.00 | 0.00 | 0.00 | 61 | 1023.0 |
| 20260905092142 | 70 | 265 | 6.1 | 10.4 | 0.00 | 0.00 | 0.00 | 64 | 1023.2 |
| 20260905090939 | 70 | 271 | 6.1 | 9.6 | 0.00 | 0.00 | 0.00 | 66 | 1023.1 |
| 20260905085716 | 0 | 0.0 | 0.0 | 0.00 | 0.00 | 0.00 | |||
| 20260905084535 | 68 | 281 | 5.2 | 7.8 | 0.00 | 0.00 | 0.00 | 70 | 1023.4 |
| 20260905083331 | 68 | 280 | 2.6 | 3.5 | 0.00 | 0.00 | 0.00 | 73 | 1023.5 |
| 20260905082127 | 67 | 277 | 2.6 | 5.2 | 0.00 | 0.00 | 0.00 | 75 | 1023.6 |
| 20260905080945 | 66 | 316 | 0.9 | 2.6 | 0.00 | 0.00 | 0.00 | 76 | 1023.3 |
| 20260905075743 | 66 | 274 | 2.6 | 4.3 | 0.00 | 0.00 | 0.00 | 75 | 1022.8 |
| 20260905074528 | 66 | 230 | 2.6 | 4.3 | 0.00 | 0.00 | 0.00 | 75 | 1022.2 |
| 20260905073334 | 66 | 266 | 1.7 | 3.5 | 0.00 | 0.00 | 0.00 | 73 | 1021.8 |
| 20260905072135 | 67 | 249 | 2.6 | 4.3 | 0.00 | 0.00 | 0.00 | 73 | 1021.8 |
| 20260905070930 | 67 | 224 | 1.7 | 3.5 | 0.00 | 0.00 | 0.00 | 74 | 1021.6 |
| 20260905065757 | 66 | 244 | 2.6 | 3.5 | 0.00 | 0.00 | 0.00 | 73 | 1022.0 |
| 20260905064531 | 67 | 318 | 1.7 | 1.7 | 0.00 | 0.00 | 0.00 | 70 | 1022.1 |
| 20260905063336 | 67 | 322 | 2.6 | 3.5 | 0.00 | 0.00 | 0.00 | 70 | 1022.3 |
| 20260905062131 | 67 | 303 | 1.7 | 4.3 | 0.00 | 0.00 | 0.00 | 71 | 1022.6 |
| 20260905060946 | 67 | 315 | 0.9 | 1.7 | 0.00 | 0.00 | 0.00 | 72 | 1022.5 |
| 20260905055733 | 66 | 289 | 1.7 | 3.5 | 0.00 | 0.00 | 0.00 | 73 | 1022.2 |
| 20260905054600 | 67 | 245 | 2.6 | 4.3 | 0.00 | 0.00 | 0.00 | 74 | 1022.2 |
| 20260905053325 | 68 | 300 | 1.7 | 2.6 | 0.00 | 0.00 | 0.00 | 72 | 1021.6 |
| 20260905052141 | 69 | 300 | 1.7 | 2.6 | 0.00 | 0.00 | 0.00 | 68 | 1021.4 |
| 20260905051002 | 69 | 319 | 1.7 | 2.6 | 0.00 | 0.00 | 0.00 | 67 | 1021.4 |
| 20260905045738 | 69 | 321 | 1.7 | 2.6 | 0.00 | 0.00 | 0.00 | 66 | 1021.2 |
| 20260905044555 | 69 | 326 | 0.9 | 1.7 | 0.00 | 0.00 | 0.00 | 64 | 1020.7 |
| 20260905043353 | 70 | 321 | 1.7 | 2.6 | 0.00 | 0.00 | 0.00 | 62 | 1020.6 |
| 20260905042129 | 70 | 316 | 2.6 | 3.5 | 0.00 | 0.00 | 0.00 | 59 | 1020.3 |
| 20260905040956 | 70 | 291 | 2.6 | 3.5 | 0.00 | 0.00 | 0.00 | 57 | 1020.4 |
| 20260905035733 | 70 | 313 | 2.6 | 3.5 | 0.00 | 0.00 | 0.00 | 56 | 1019.9 |
| 20260905034531 | 71 | 328 | 3.5 | 5.2 | 0.00 | 0.00 | 0.00 | 57 | 1019.4 |
| 20260905033323 | 71 | 320 | 1.7 | 3.5 | 0.00 | 0.00 | 0.00 | 57 | 1019.1 |
| 20260905032130 | 71 | 318 | 2.6 | 3.5 | 0.00 | 0.00 | 0.00 | 57 | 1018.8 |
| 20260905030957 | 71 | 319 | 2.6 | 3.5 | 0.00 | 0.00 | 0.00 | 57 | 1018.2 |
| 20260905025734 | 71 | 336 | 2.6 | 4.3 | 0.00 | 0.00 | 0.00 | 57 | 1017.9 |
| 20260905024531 | 72 | 334 | 1.7 | 3.5 | 0.00 | 0.00 | 0.00 | 57 | 1017.8 |
| 20260905023419 | 72 | 320 | 2.6 | 4.3 | 0.00 | 0.00 | 0.00 | 57 | 1017.8 |
| 20260905022145 | 72 | 329 | 1.7 | 3.5 | 0.00 | 0.00 | 0.00 | 57 | 1017.6 |
| 20260905020931 | 73 | 322 | 3.5 | 5.2 | 0.00 | 0.00 | 0.00 | 56 | 1017.6 |
| 20260905015757 | 73 | 355 | 4.3 | 8.7 | 0.00 | 0.00 | 0.00 | 56 | 1016.9 |
| 20260905014535 | 75 | 13 | 7.8 | 14.8 | 0.00 | 0.00 | 0.00 | 56 | 1016.9 |
| 20260905013357 | 75 | 318 | 1.7 | 3.5 | 0.00 | 0.00 | 0.00 | 55 | 1016.1 |
| 20260905012132 | 75 | 292 | 1.7 | 3.5 | 0.00 | 0.00 | 0.00 | 55 | 1015.6 |
| 20260905010935 | 75 | 304 | 0.9 | 1.7 | 0.00 | 0.00 | 0.00 | 55 | 1015.5 |
| 20260905005732 | 75 | 292 | 0.0 | 0.9 | 0.00 | 0.00 | 0.00 | 55 | 1015.3 |
| 20260905004545 | 75 | 299 | 0.0 | 0.9 | 0.00 | 0.00 | 0.00 | 55 | 1015.2 |
| 20260905003332 | 75 | 293 | 0.0 | 0.9 | 0.00 | 0.00 | 0.00 | 54 | 1015.2 |
| 20260905002129 | 75 | 301 | 0.9 | 1.7 | 0.00 | 0.00 | 0.00 | 54 | 1015.3 |
| 20260905000936 | 75 | 311 | 0.0 | 0.9 | 0.00 | 0.00 | 0.00 | 53 | 1015.1 |
| 20260904235743 | 75 | 310 | 0.9 | 0.9 | 0.00 | 0.00 | 0.00 | 53 | 1014.9 |
| 20260904234529 | 75 | 290 | 1.7 | 2.6 | 0.00 | 0.00 | 0.00 | 52 | 1014.9 |
| 20260904233347 | 76 | 289 | 0.9 | 1.7 | 0.00 | 0.00 | 0.00 | 52 | 1014.8 |
| 20260904232144 | 75 | 258 | 2.6 | 3.5 | 0.00 | 0.00 | 0.00 | 52 | 1014.8 |
| 20260904230931 | 75 | 273 | 1.7 | 3.5 | 0.00 | 0.00 | 0.00 | 53 | 1014.7 |
| 20260904225752 | 75 | 297 | 1.7 | 1.7 | 0.00 | 0.00 | 0.00 | 53 | 1014.6 |
| 20260904224533 | 74 | 288 | 0.9 | 1.7 | 0.00 | 0.00 | 0.00 | 54 | 1014.5 |
| 20260904223330 | 74 | 284 | 1.7 | 1.7 | 0.00 | 0.00 | 0.00 | 56 | 1014.5 |
| 20260904222137 | 74 | 0.0 | 0.0 | 0.00 | 0.00 | 0.00 | 56 | 1014.5 | |
| 20260904220922 | 74 | 0.0 | 0.0 | 0.00 | 0.00 | 0.00 | 55 | 1014.4 | |
| 20260904215726 | 74 | 0.0 | 0.0 | 0.00 | 0.00 | 0.00 | 55 | 1014.5 | |
| 20260904214553 | 74 | 0 | 0.0 | 0.0 | 0.00 | 0.00 | 0.00 | 55 | 1014.5 |
| 20260904213329 | 74 | 0 | 0.0 | 0.9 | 0.00 | 0.00 | 0.00 | 55 | 1014.4 |
| 20260904212136 | 74 | 0.0 | 0.0 | 0.00 | 0.00 | 0.00 | 55 | 1014.4 | |
| 20260904210943 | 74 | 338 | 0.0 | 0.0 | 0.00 | 0.00 | 0.00 | 54 | 1014.5 |
| 20260904205740 | 75 | 0 | 0.0 | 0.9 | 0.00 | 0.00 | 0.00 | 54 | 1014.5 |
| 20260904204547 | 76 | 0.0 | 0.0 | 0.00 | 0.00 | 0.00 | 54 | 1014.5 | |
| 20260904203352 | 76 | 0.0 | 0.0 | 0.00 | 0.00 | 0.00 | 54 | 1014.7 | |
| 20260904202137 | 77 | 0.0 | 0.0 | 0.00 | 0.00 | 0.00 | 53 | 1014.7 | |
| 20260904200933 | 78 | 0.0 | 0.0 | 0.00 | 0.00 | 0.00 | 53 | 1014.7 | |
| 20260904195730 | 78 | 0.0 | 0.0 | 0.00 | 0.00 | 0.00 | 52 | 1014.7 |